Regional Weather Roundup
Issued by NWS

Home | Current Version | Previous Version | Graphics & Text | Print | Product List | Glossary On
Versions: 1 2 3 4 5 6 7 8 9 10 11 12 13 14 15 16 17 18 19 20 21 22 23 24 25 26 27 28 29 30 31 32 33 34 35 36 37 38 39 40 41 42 43 44 45 46 47 48 49 50
000
ASUS44 KMEG 132100
RWRTN
TENNESSEE HOURLY STATE WEATHER ROUNDUP
NATIONAL WEATHER SERVICE MEMPHIS TN
300 PM CST WED DEC 13 2017

TNZ002-004-019-021-049-052-054-088>092-132200-
WEST TENNESSEE

CITY           SKY/WX    TMP DP  RH WIND       PRES   REMARKS
MEMPHIS INTL   MOSUNNY   57  25  29 SW15G26   29.79F
NWS MEMPHIS      N/A     57 N/A N/A MISG        N/A
JACKSON        SUNNY     57  23  26 SW24G31   29.76F
DYERSBURG      MOSUNNY   55  26  32 SW17G26   29.76R
$$

TNZ008-025-027-028-033-062-065-066-132200-
NORTH MIDDLE TENNESSEE

CITY           SKY/WX    TMP DP  RH WIND       PRES   REMARKS
NASHVILLE      MOSUNNY   51  16  24 SW16G26   29.71F
CLARKSVILLE    MOSUNNY   51  16  24 SW17G29   29.69R
SMYRNA         SUNNY     50  17  27 S15G24    29.72F
CROSSVILLE     MOSUNNY   40  10  29 S10G21    29.72F WCI  33
$$

TNZ061-075-076-078-094-096-097-132200-
SOUTH MIDDLE TENNESSEE

CITY           SKY/WX    TMP DP  RH WIND       PRES   REMARKS
WINCHESTER     SUNNY     46  14  27 S12       29.81F
$$

TNZ017-018-042-046-047-132200-
NORTHEAST TENNESSEE

CITY           SKY/WX    TMP DP  RH WIND       PRES   REMARKS
TRI CITIES     MOSUNNY   41  11  29 SW10      29.72F
$$

TNZ012-013-036-069-073-074-132200-
CENTRAL EAST TENNESSEE

CITY           SKY/WX    TMP DP  RH WIND       PRES   REMARKS
KNOXVILLE      MOSUNNY   47   7  19 SW22G29   29.75F
OAK RIDGE      SUNNY     43   9  24 SW10G22   29.79F
$$

TNZ083-085-099-132200-
SOUTHEAST TENNESSEE

CITY           SKY/WX    TMP DP  RH WIND       PRES   REMARKS
CHATTANOOGA    MOSUNNY   47  13  25 S15       29.84F
$$

SKY/WX REPORTED AS FAIR MEANS FEW OR NO CLOUDS BELOW
12 THOUSAND FEET.





USA.gov is the U.S. government's official web portal to all federal, state and local government web resources and services.